Date String (YYYY-MM-DD hh:mm:ss) UTC,Instrument flags,Ambient pressure (hPa),Sample flow (lpm),Bypass flow (lpm),Sample temperature (°C),Ambient temperature (°C),ASC tube jacket temperature (°C),LED temperature (°C),Box temperature (°C),Sample RH (%),Span deviation,Mass concentration (μg/m³),Mass concentration (μg/m³),Mass concentration (μg/m³)
DateTimeUTC,F1_M11,P_M11,Q1_M11,Q2_M11,T1_M11,T2_M11,T3_M11,T4_M11,T5_M11,U1_M11,ZSPAN_M11,X0_M11,X2_M11,X1_M11
2022-07-01 03:00:00,,0829.4,5.00,0.00,29.7,28.2,00.0,38.5,31.6,22.4,0000.0,0009.44,0003.43,0002.03
2022-07-01 03:01:00,,0829.4,4.99,0.00,29.7,28.3,00.0,38.5,31.6,22.4,0000.0,0009.09,0003.34,0001.99
2022-07-01 03:02:00,,0829.4,5.00,0.00,29.7,28.4,00.0,38.5,31.6,22.3,0000.0,0009.22,0003.28,0001.92
2022-07-01 03:03:00,,0829.4,4.99,0.00,29.8,28.5,00.0,38.5,31.7,22.1,0000.0,0009.22,0003.24,0001.85
2022-07-01 03:04:00,,0829.5,5.00,0.00,29.8,28.6,00.0,38.5,31.7,21.9,0000.0,0009.00,0003.17,0001.80
2022-07-01 03:05:00,,0829.5,5.00,0.00,29.8,28.7,00.0,38.5,31.7,22.0,0000.0,0008.86,0003.11,0001.73
2022-07-01 03:06:00,,0829.5,5.00,0.00,29.8,28.7,00.0,38.5,31.7,21.9,0000.0,0008.95,0003.06,0001.69
2022-07-01 03:07:00,,0829.5,5.01,0.00,29.8,28.8,00.0,38.6,31.8,21.8,0000.0,0008.43,0002.97,0001.63
2022-07-01 03:08:00,,0829.5,5.01,0.00,29.8,28.8,00.0,38.6,31.8,21.8,0000.0,0007.85,0002.97,0001.60
2022-07-01 03:09:00,,0829.5,4.99,0.00,29.9,28.9,00.0,38.6,31.9,21.7,0000.0,0007.86,0002.99,0001.57
2022-07-01 03:10:00,,0829.6,5.00,0.00,29.9,28.9,00.0,38.6,31.9,21.8,0000.0,0008.26,0003.04,0001.55
2022-07-01 03:11:00,,0829.5,4.99,0.00,29.9,29.0,00.0,38.6,31.9,21.9,0000.0,0008.93,0003.07,0001.53
2022-07-01 03:12:00,,0829.5,4.99,0.00,29.9,29.0,00.0,38.6,31.9,22.0,0000.0,0009.03,0003.08,0001.50
2022-07-01 03:13:00,,0829.5,5.01,0.00,30.0,28.4,00.0,38.6,31.8,22.2,0000.0,0008.88,0002.99,0001.48
2022-07-01 03:14:00,,0829.5,4.99,0.00,29.9,27.7,00.0,38.6,31.7,22.3,0000.0,0008.86,0002.91,0001.48
2022-07-01 03:15:00,,0829.5,5.00,0.00,29.8,27.5,00.0,38.6,31.6,22.4,0000.0,0008.98,0002.88,0001.47
2022-07-01 03:16:00,,0829.5,5.01,0.00,29.8,27.5,00.0,38.6,31.5,22.5,0000.0,0008.92,0002.83,0001.49
2022-07-01 03:17:00,,0829.5,4.99,0.00,29.7,27.6,00.0,38.5,31.5,22.6,0000.0,0008.64,0002.76,0001.48
2022-07-01 03:18:00,,0829.5,5.00,0.00,29.7,27.8,00.0,38.5,31.5,22.6,0000.0,0008.96,0002.76,0001.48
2022-07-01 03:19:00,,0829.6,5.01,0.00,29.7,27.9,00.0,38.5,31.5,22.5,0000.0,0009.05,0002.76,0001.46
2022-07-01 03:20:00,,0829.7,5.00,0.00,29.7,28.1,00.0,38.5,31.6,22.5,0000.0,0009.25,0002.68,0001.45
2022-07-01 03:21:00,,0829.7,5.00,0.00,29.7,28.2,00.0,38.5,31.6,22.5,0000.0,0008.95,0002.58,0001.43
2022-07-01 03:22:00,,0829.6,5.00,0.00,29.7,28.3,00.0,38.5,31.6,22.4,0000.0,0008.08,0002.42,0001.41
2022-07-01 03:23:00,,0829.6,4.99,0.00,29.7,28.4,00.0,38.5,31.6,22.5,0000.0,0007.78,0002.33,0001.38
2022-07-01 03:24:00,,0829.6,5.00,0.00,29.7,28.5,00.0,38.5,31.7,22.6,0000.0,0007.92,0002.34,0001.37
2022-07-01 03:25:00,,0829.6,5.01,0.00,29.7,28.6,00.0,38.5,31.7,22.6,0000.0,0007.86,0002.38,0001.35
2022-07-01 03:26:00,,0829.7,5.00,0.00,29.8,28.7,00.0,38.5,31.7,22.6,0000.0,0007.63,0002.33,0001.31
2022-07-01 03:27:00,,0829.8,4.99,0.00,29.8,28.7,00.0,38.5,31.7,22.5,0000.0,0007.57,0002.30,0001.29
2022-07-01 03:28:00,,0829.8,4.99,0.00,29.8,28.8,00.0,38.6,31.7,22.5,0000.0,0007.84,0002.28,0001.27
2022-07-01 03:29:00,,0829.8,5.01,0.00,29.8,28.8,00.0,38.6,31.8,22.8,0000.0,0007.31,0002.20,0001.25
2022-07-01 03:30:00,,0829.8,5.00,0.00,29.9,28.9,00.0,38.6,31.9,23.6,0000.0,0006.65,0002.11,0001.25
2022-07-01 03:31:00,,0829.8,5.00,0.00,29.9,28.9,00.0,38.6,31.9,23.8,0000.0,0005.67,0002.07,0001.25
2022-07-01 03:32:00,,0829.9,5.00,0.00,29.9,29.0,00.0,38.6,31.9,23.9,0000.0,0005.66,0002.09,0001.27
2022-07-01 03:33:00,,0829.9,5.00,0.00,29.9,29.0,00.0,38.6,31.9,23.9,0000.0,0005.79,0002.12,0001.28
2022-07-01 03:34:00,,0829.9,5.00,0.00,30.0,29.1,00.0,38.7,32.0,24.1,0000.0,0005.94,0002.20,0001.29
2022-07-01 03:35:00,,0829.9,5.00,0.00,30.0,29.1,00.0,38.7,32.0,24.1,0000.0,0004.86,0002.22,0001.30
2022-07-01 03:36:00,,0829.9,5.00,0.00,30.0,29.1,00.0,38.7,32.0,24.2,0000.0,0004.65,0002.16,0001.31
2022-07-01 03:37:00,,0829.8,5.01,0.00,30.0,28.5,00.0,38.7,31.9,24.3,0000.0,0004.80,0002.23,0001.33
2022-07-01 03:38:00,,0830.0,5.00,0.00,30.0,27.8,00.0,38.6,31.7,24.4,0000.0,0004.88,0002.28,0001.36
2022-07-01 03:39:00,,0830.0,4.99,0.00,29.9,27.5,00.0,38.6,31.7,24.5,0000.0,0004.53,0002.32,0001.38
2022-07-01 03:40:00,,0829.9,5.00,0.00,29.8,27.5,00.0,38.6,31.5,24.7,0000.0,0004.74,0002.38,0001.40
2022-07-01 03:41:00,,0830.0,5.00,0.00,29.8,27.6,00.0,38.6,31.5,24.9,0000.0,0005.20,0002.38,0001.40
2022-07-01 03:42:00,,0830.0,5.01,0.00,29.7,27.8,00.0,38.6,31.5,25.0,0000.0,0005.28,0002.35,0001.39
2022-07-01 03:43:00,,0830.1,5.00,0.00,29.7,27.9,00.0,38.5,31.5,25.1,0000.0,0005.18,0002.32,0001.38
2022-07-01 03:44:00,,0830.1,5.00,0.00,29.7,28.0,00.0,38.5,31.6,25.1,0000.0,0005.62,0002.35,0001.38
2022-07-01 03:45:00,,0830.1,5.00,0.00,29.7,28.2,00.0,38.5,31.6,25.2,0000.0,0006.36,0002.30,0001.39
2022-07-01 03:46:00,,0830.1,5.00,0.00,29.7,28.3,00.0,38.5,31.6,25.3,0000.0,0007.04,0002.26,0001.40
2022-07-01 03:47:00,,0830.1,4.99,0.00,29.7,28.4,00.0,38.5,31.6,25.3,0000.0,0007.13,0002.29,0001.42
2022-07-01 03:48:00,,0830.1,4.99,0.00,29.7,28.5,00.0,38.5,31.6,25.4,0000.0,0007.05,0002.27,0001.43
2022-07-01 03:49:00,,0830.2,5.00,0.00,29.8,28.5,00.0,38.5,31.7,25.4,0000.0,0007.32,0002.31,0001.42
2022-07-01 03:50:00,,0830.1,5.00,0.00,29.8,28.6,00.0,38.5,31.7,25.4,0000.0,0007.38,0002.35,0001.44
2022-07-01 03:51:00,,0830.1,5.01,0.00,29.8,28.7,00.0,38.6,31.7,25.5,0000.0,0007.40,0002.42,0001.46
2022-07-01 03:52:00,,0830.1,5.00,0.00,29.8,28.7,00.0,38.6,31.7,25.5,0000.0,0007.31,0002.53,0001.48
2022-07-01 03:53:00,,0830.1,5.00,0.00,29.8,28.8,00.0,38.6,31.8,25.5,0000.0,0007.47,0002.61,0001.50
2022-07-01 03:54:00,,0830.1,5.00,0.00,29.8,28.8,00.0,38.6,31.8,25.6,0000.0,0007.63,0002.64,0001.53
2022-07-01 03:55:00,,0830.1,5.00,0.00,29.9,28.9,00.0,38.6,31.8,25.6,0000.0,0007.54,0002.65,0001.53
2022-07-01 03:56:00,,0830.2,5.00,0.00,29.9,28.9,00.0,38.6,31.9,25.7,0000.0,0006.88,0002.65,0001.52
2022-07-01 03:57:00,,0830.3,4.99,0.00,29.9,29.0,00.0,38.6,31.9,25.7,0000.0,0006.15,0002.71,0001.52
2022-07-01 03:58:00,,0830.4,5.01,0.00,29.9,29.0,00.0,38.7,31.9,25.7,0000.0,0006.22,0002.72,0001.52
2022-07-01 03:59:00,,0830.5,5.00,0.00,30.0,29.0,00.0,38.7,31.9,25.6,0000.0,0006.26,0002.74,0001.51
